,,PA_Meas_PMT16A,,PR_Meas_QMR101_102,,RH_Meas_QMH101,,SR_Meas_QMS101,,TA_Meas_QMH101,,GenWind,,GenWind,
time,status,PA,status,PR,status,RH,status,SR,status,TA,status,DirAvg,status,SpdAvg,
2009-11-01, 07:00:04,VALID,916.181,VALID,0,VALID,85.3518,VALID,216.924,VALID,21.4534,VALID,123,VALID,0.635938,
2009-11-01, 07:01:04,VALID,916.19,VALID,0,VALID,84.9401,VALID,221.329,VALID,21.5526,VALID,123,VALID,0.955859,
2009-11-01, 07:02:04,VALID,916.186,VALID,0,VALID,84.1396,VALID,226.056,VALID,21.5509,VALID,154,VALID,0.827734,
2009-11-01, 07:03:04,VALID,916.225,VALID,0,VALID,83.6212,VALID,229.602,VALID,21.5509,VALID,145,VALID,2.4832,
2009-11-01, 07:04:04,VALID,916.186,VALID,0,VALID,83.3773,VALID,232.395,VALID,21.5705,VALID,119,VALID,1.93711,
2009-11-01, 07:05:04,VALID,916.209,VALID,0,VALID,84.5513,VALID,236.156,VALID,21.5721,VALID,134,VALID,1.28711,
2009-11-01, 07:06:04,VALID,916.203,VALID,0,VALID,84.6123,VALID,239.916,VALID,21.6306,VALID,145,VALID,0.782422,
2009-11-01, 07:07:04,VALID,916.223,VALID,0,VALID,83.6517,VALID,239.701,VALID,21.668,VALID,54,VALID,1.15625,
2009-11-01, 07:08:04,VALID,916.193,VALID,0,VALID,82.7064,VALID,244.321,VALID,21.707,VALID,102,VALID,1.94531,
2009-11-01, 07:09:04,VALID,916.222,VALID,0,VALID,82.8742,VALID,255.71,VALID,21.7477,VALID,106,VALID,1.65078,
2009-11-01, 07:10:04,VALID,916.222,VALID,0,VALID,83.4688,VALID,260.545,VALID,21.7672,VALID,94,VALID,1.35781,
2009-11-01, 07:11:04,VALID,916.23,VALID,0,VALID,82.9428,VALID,264.842,VALID,21.8257,VALID,133,VALID,1.07578,
2009-11-01, 07:12:04,VALID,916.212,VALID,0,VALID,82.5235,VALID,263.983,VALID,21.8647,VALID,115,VALID,2.57852,
2009-11-01, 07:13:04,VALID,916.22,VALID,0,VALID,84.0939,VALID,269.033,VALID,21.8647,VALID,76,VALID,0.525,
2009-11-01, 07:14:04,VALID,916.2,VALID,0,VALID,83.0876,VALID,278.702,VALID,21.9606,VALID,176,VALID,0.594531,
2009-11-01, 07:15:04,VALID,916.216,VALID,0,VALID,81.6239,VALID,280.744,VALID,22.0989,VALID,161,VALID,0.962891,
2009-11-01, 07:16:04,VALID,916.237,VALID,0,VALID,81.6087,VALID,281.388,VALID,22.0989,VALID,121,VALID,2.42734,
2009-11-01, 07:17:04,VALID,916.22,VALID,0,VALID,81.136,VALID,284.934,VALID,22.0582,VALID,115,VALID,2.47969,
2009-11-01, 07:18:04,VALID,916.219,VALID,0,VALID,80.7396,VALID,285.579,VALID,22.0598,VALID,110,VALID,2.35313,
2009-11-01, 07:19:04,VALID,916.255,VALID,0,VALID,82.0889,VALID,286.653,VALID,22.0403,VALID,90,VALID,1.56484,
2009-11-01, 07:20:04,VALID,916.28,VALID,0,VALID,81.9288,VALID,277.95,VALID,22.0794,VALID,131,VALID,1.86719,
2009-11-01, 07:21:04,VALID,916.327,VALID,0,VALID,80.8921,VALID,283.537,VALID,22.0972,VALID,105,VALID,1.59258,
2009-11-01, 07:22:04,VALID,916.331,VALID,0,VALID,80.9759,VALID,291.38,VALID,22.1574,VALID,57,VALID,1.86641,
2009-11-01, 07:23:04,VALID,916.306,VALID,0,VALID,80.8768,VALID,282.248,VALID,22.1574,VALID,97,VALID,2.34063,
2009-11-01, 07:24:04,VALID,916.369,VALID,0,VALID,81.319,VALID,285.686,VALID,22.2142,VALID,63,VALID,1.20156,
2009-11-01, 07:25:04,VALID,916.418,VALID,0,VALID,80.9073,VALID,295.785,VALID,22.2745,VALID,114,VALID,2.39297,
2009-11-01, 07:26:04,VALID,916.413,VALID,0,VALID,78.8871,VALID,303.199,VALID,22.3118,VALID,128,VALID,2.87695,
2009-11-01, 07:27:04,VALID,916.451,VALID,0,VALID,79.0548,VALID,292.455,VALID,22.3508,VALID,111,VALID,2.9,
2009-11-01, 07:28:04,VALID,916.438,VALID,0,VALID,78.6889,VALID,283.752,VALID,22.3703,VALID,95,VALID,3.26992,
2009-11-01, 07:29:04,VALID,916.441,VALID,0,VALID,77.2328,VALID,287.727,VALID,22.4289,VALID,142,VALID,2.13477,
2009-11-01, 07:30:04,VALID,916.489,VALID,0,VALID,79.6571,VALID,292.777,VALID,22.4679,VALID,111,VALID,1.6375,
2009-11-01, 07:31:04,VALID,916.461,VALID,0,VALID,78.6279,VALID,295.033,VALID,22.5069,VALID,81,VALID,1.19375,
2009-11-01, 07:32:04,VALID,916.487,VALID,0,VALID,79.5275,VALID,277.413,VALID,22.5655,VALID,195,VALID,1.08984,
2009-11-01, 07:33:04,VALID,916.514,VALID,0,VALID,79.1616,VALID,221.866,VALID,22.624,VALID,134,VALID,1.23086,
2009-11-01, 07:34:04,VALID,916.515,VALID,0,VALID,76.7297,VALID,182.972,VALID,22.6435,VALID,94,VALID,2.83672,
2009-11-01, 07:35:04,VALID,916.517,VALID,0,VALID,77.2862,VALID,155.038,VALID,22.6045,VALID,128,VALID,2.5875,
2009-11-01, 07:36:04,VALID,916.513,VALID,0,VALID,77.7207,VALID,140.318,VALID,22.5655,VALID,92,VALID,1.2207,
2009-11-01, 07:37:04,VALID,916.513,VALID,0,VALID,79.2759,VALID,128.177,VALID,22.5069,VALID,80,VALID,2.60313,
2009-11-01, 07:38:04,VALID,916.528,VALID,0,VALID,79.0701,VALID,120.334,VALID,22.4289,VALID,63,VALID,2.16758,
2009-11-01, 07:39:04,VALID,916.547,VALID,0,VALID,80.0992,VALID,116.036,VALID,22.3508,VALID,70,VALID,2.03711,
2009-11-01, 07:40:04,VALID,916.506,VALID,0,VALID,79.5122,VALID,117.863,VALID,22.2923,VALID,86,VALID,2.65977,
2009-11-01, 07:41:04,VALID,916.528,VALID,0,VALID,78.8337,VALID,116.144,VALID,22.2923,VALID,104,VALID,1.31602,
2009-11-01, 07:42:04,VALID,916.505,VALID,0,VALID,79.8019,VALID,115.284,VALID,22.2923,VALID,47,VALID,2.22227,
2009-11-01, 07:43:04,VALID,916.588,VALID,0,VALID,79.2912,VALID,119.367,VALID,22.2923,VALID,116,VALID,2.8543,
2009-11-01, 07:44:04,VALID,916.565,VALID,0,VALID,80.2974,VALID,127.318,VALID,22.2728,VALID,66,VALID,1.88242,
2009-11-01, 07:45:04,VALID,916.576,VALID,0,VALID,79.9696,VALID,143.434,VALID,22.2728,VALID,53,VALID,2.16758,
2009-11-01, 07:46:04,VALID,916.614,VALID,0,VALID,80.4728,VALID,146.442,VALID,22.2533,VALID,100,VALID,1.59063,
2009-11-01, 07:47:04,VALID,916.587,VALID,0,VALID,80.3661,VALID,133.012,VALID,22.2533,VALID,97,VALID,2.30273,
2009-11-01, 07:48:04,VALID,916.658,VALID,0,VALID,79.5275,VALID,152.029,VALID,22.2338,VALID,97,VALID,1.53164,
2009-11-01, 07:49:04,VALID,916.648,VALID,0,VALID,79.9544,VALID,166.641,VALID,22.2728,VALID,93,VALID,2.63086,
2009-11-01, 07:50:04,VALID,916.642,VALID,0,VALID,79.4284,VALID,142.36,VALID,22.2728,VALID,105,VALID,3.13203,
2009-11-01, 07:51:04,VALID,916.629,VALID,0,VALID,78.9862,VALID,132.69,VALID,22.2728,VALID,60,VALID,4.67344,
2009-11-01, 07:52:04,VALID,916.635,VALID,0,VALID,79.3598,VALID,195.865,VALID,22.3118,VALID,63,VALID,2.90547,
2009-11-01, 07:53:04,VALID,916.69,VALID,0,VALID,79.0853,VALID,296,VALID,22.3508,VALID,65,VALID,2.26758,
2009-11-01, 07:54:04,VALID,916.654,VALID,0,VALID,79.5275,VALID,328.555,VALID,22.4289,VALID,128,VALID,2.075,
2009-11-01, 07:55:04,VALID,916.67,VALID,0,VALID,79.2073,VALID,381.416,VALID,22.5247,VALID,114,VALID,2.54961,
2009-11-01, 07:56:04,VALID,916.667,VALID,0,VALID,79.7867,VALID,400.863,VALID,22.624,VALID,110,VALID,2.0668,
2009-11-01, 07:57:04,VALID,916.703,VALID,0,VALID,77.736,VALID,405.805,VALID,22.7411,VALID,100,VALID,2.44883,
2009-11-01, 07:58:04,VALID,916.683,VALID,0,VALID,77.9189,VALID,413.971,VALID,22.8582,VALID,104,VALID,2.52773,
2009-11-01, 07:59:04,VALID,916.732,VALID,0,VALID,77.9571,VALID,434.277,VALID,23.0143,VALID,115,VALID,2.44609,
2009-11-01, 08:00:04,VALID,916.724,VALID,0,VALID,75.6853,VALID,444.699,VALID,23.0338,VALID,114,VALID,2.10547,
2009-11-01, 08:01:04,VALID,916.781,VALID,0,VALID,77.7512,VALID,456.41,VALID,23.1314,VALID,129,VALID,2.08008,
2009-11-01, 08:02:04,VALID,916.725,VALID,0,VALID,77.4158,VALID,468.121,VALID,23.1509,VALID,89,VALID,2.91094,
2009-11-01, 08:03:04,VALID,916.703,VALID,0,VALID,76.0969,VALID,473.063,VALID,23.2094,VALID,110,VALID,2.11211,
2009-11-01, 08:04:04,VALID,916.743,VALID,0,VALID,77.2404,VALID,466.509,VALID,23.307,VALID,105,VALID,1.84648,
2009-11-01, 08:05:04,VALID,916.745,VALID,0,VALID,75.9292,VALID,418.913,VALID,23.4241,VALID,106,VALID,2.04102,
2009-11-01, 08:06:04,VALID,916.71,VALID,0,VALID,74.9458,VALID,474.245,VALID,23.5217,VALID,226,VALID,1.5043,
2009-11-01, 08:07:04,VALID,916.697,VALID,0,VALID,75.2431,VALID,516.577,VALID,23.6584,VALID,73,VALID,1.07266,
2009-11-01, 08:08:04,VALID,916.741,VALID,0,VALID,75.914,VALID,527.429,VALID,23.834,VALID,18,VALID,0.875,
2009-11-01, 08:09:04,VALID,916.711,VALID,0,VALID,75.9597,VALID,537.743,VALID,24.0292,VALID,70,VALID,1.23281,
2009-11-01, 08:10:04,VALID,916.766,VALID,0,VALID,72.8341,VALID,546.983,VALID,24.086,VALID,106,VALID,2.10977,
2009-11-01, 08:11:04,VALID,916.768,VALID,0,VALID,75.1135,VALID,520.123,VALID,24.0097,VALID,121,VALID,1.78125,
2009-11-01, 08:12:04,VALID,916.733,VALID,0,VALID,74.3512,VALID,494.014,VALID,24.0274,VALID,44,VALID,0.888281,
2009-11-01, 08:13:04,VALID,916.71,VALID,0,VALID,75.4642,VALID,579.108,VALID,24.1464,VALID,143,VALID,1.39727,
2009-11-01, 08:14:04,VALID,916.76,VALID,0,VALID,74.9001,VALID,498.205,VALID,24.2031,VALID,104,VALID,2.01641,
2009-11-01, 08:15:04,VALID,916.719,VALID,0,VALID,72.2547,VALID,563.314,VALID,24.1445,VALID,109,VALID,2.29727,
2009-11-01, 08:16:04,VALID,916.748,VALID,0,VALID,75.5023,VALID,355.415,VALID,24.1464,VALID,132,VALID,1.40508,
2009-11-01, 08:17:04,VALID,916.769,VALID,0,VALID,73.848,VALID,268.71,VALID,24.1854,VALID,113,VALID,2.3082,
2009-11-01, 08:18:04,VALID,916.786,VALID,0,VALID,72.8799,VALID,239.164,VALID,24.0683,VALID,115,VALID,1.56133,
2009-11-01, 08:19:04,VALID,916.8,VALID,0,VALID,70.631,VALID,229.065,VALID,24.0488,VALID,100,VALID,1.86523,
2009-11-01, 08:20:04,VALID,916.798,VALID,0,VALID,71.805,VALID,210.047,VALID,23.9298,VALID,167,VALID,2.80703,
2009-11-01, 08:21:04,VALID,916.834,VALID,0,VALID,75.2355,VALID,205.535,VALID,23.8536,VALID,117,VALID,0.998438,
2009-11-01, 08:22:04,VALID,916.868,VALID,0,VALID,72.9256,VALID,205.965,VALID,23.8127,VALID,77,VALID,1.6457,
2009-11-01, 08:23:04,VALID,916.865,VALID,0,VALID,74.3207,VALID,211.981,VALID,23.7755,VALID,93,VALID,1.17852,
2009-11-01, 08:24:04,VALID,916.859,VALID,0,VALID,74.9839,VALID,226.593,VALID,23.7346,VALID,93,VALID,0.972266,
2009-11-01, 08:25:04,VALID,916.894,VALID,0,VALID,76.2494,VALID,243.247,VALID,23.756,VALID,93,VALID,0.898828,
2009-11-01, 08:26:04,VALID,916.916,VALID,0,VALID,76.7449,VALID,238.09,VALID,23.7542,VALID,93,VALID,0.616406,
2009-11-01, 08:27:04,VALID,916.89,VALID,0,VALID,72.209,VALID,240.346,VALID,23.795,VALID,149,VALID,1.38359,
2009-11-01, 08:28:04,VALID,916.933,VALID,0,VALID,73.4135,VALID,231.106,VALID,23.834,VALID,123,VALID,1.33984,
2009-11-01, 08:29:04,VALID,916.899,VALID,0,VALID,73.4592,VALID,241.635,VALID,23.8145,VALID,102,VALID,1.5168,
2009-11-01, 08:30:04,VALID,916.88,VALID,0,VALID,74.3131,VALID,255.495,VALID,23.7755,VALID,148,VALID,0.83125,
2009-11-01, 08:31:04,VALID,916.952,VALID,0,VALID,75.4718,VALID,251.95,VALID,23.756,VALID,105,VALID,1.4293,
2009-11-01, 08:32:04,VALID,916.917,VALID,0,VALID,75.7386,VALID,260.222,VALID,23.7169,VALID,152,VALID,0.882031,
2009-11-01, 08:33:04,VALID,916.867,VALID,0,VALID,72.2166,VALID,275.479,VALID,23.6974,VALID,94,VALID,3.70469,
2009-11-01, 08:34:04,VALID,916.846,VALID,0,VALID,72.1861,VALID,308.356,VALID,23.6388,VALID,102,VALID,3.575,
2009-11-01, 08:35:04,VALID,916.861,VALID,0,VALID,73.8099,VALID,324.15,VALID,23.6388,VALID,65,VALID,2.9082,
2009-11-01, 08:36:04,VALID,916.914,VALID,0,VALID,73.4287,VALID,385.929,VALID,23.6779,VALID,104,VALID,2.22969,
2009-11-01, 08:37:04,VALID,916.91,VALID,0,VALID,71.2561,VALID,433.955,VALID,23.6974,VALID,139,VALID,2.5168,
2009-11-01, 08:38:04,VALID,916.891,VALID,0,VALID,72.4148,VALID,401.078,VALID,23.7169,VALID,125,VALID,3.41914,
2009-11-01, 08:39:04,VALID,916.925,VALID,0,VALID,73.6193,VALID,375.722,VALID,23.795,VALID,111,VALID,2.04414,
2009-11-01, 08:40:04,VALID,916.922,VALID,0,VALID,73.7718,VALID,380.449,VALID,23.8536,VALID,145,VALID,0.834766,
2009-11-01, 08:41:04,VALID,916.898,VALID,0,VALID,73.3601,VALID,320.282,VALID,23.9884,VALID,158,VALID,0.841797,
2009-11-01, 08:42:04,VALID,916.894,VALID,0,VALID,73.4669,VALID,329.737,VALID,24.086,VALID,137,VALID,1.0207,
2009-11-01, 08:43:04,VALID,916.926,VALID,0,VALID,72.4911,VALID,479.617,VALID,24.1269,VALID,90,VALID,1.73047,
2009-11-01, 08:44:04,VALID,916.936,VALID,0,VALID,71.8736,VALID,443.302,VALID,24.1269,VALID,53,VALID,1.70391,
2009-11-01, 08:45:04,VALID,916.925,VALID,0,VALID,72.27,VALID,550.528,VALID,24.2421,VALID,146,VALID,1.54961,
2009-11-01, 08:46:04,VALID,916.909,VALID,0,VALID,68.5726,VALID,399.574,VALID,24.3788,VALID,165,VALID,1.49883,
2009-11-01, 08:47:04,VALID,916.934,VALID,0,VALID,66.7583,VALID,485.312,VALID,24.3983,VALID,79,VALID,3.85469,
2009-11-01, 08:48:04,VALID,916.953,VALID,0,VALID,68.5345,VALID,566.43,VALID,24.4197,VALID,129,VALID,2.75898,
2009-11-01, 08:49:04,VALID,916.91,VALID,0,VALID,68.5955,VALID,656.573,VALID,24.4002,VALID,81,VALID,3.01992,
2009-11-01, 08:50:04,VALID,916.895,VALID,0,VALID,70.8215,VALID,678.169,VALID,24.4569,VALID,123,VALID,1.7918,
2009-11-01, 08:51:04,VALID,916.897,VALID,0,VALID,69.1596,VALID,665.92,VALID,24.5173,VALID,119,VALID,2.0457,
2009-11-01, 08:52:04,VALID,916.975,VALID,0,VALID,69.3731,VALID,657.325,VALID,24.6735,VALID,111,VALID,1.74219,
2009-11-01, 08:53:04,VALID,916.935,VALID,0,VALID,66.2399,VALID,652.705,VALID,24.8083,VALID,177,VALID,2.38906,
2009-11-01, 08:54:04,VALID,916.923,VALID,0,VALID,70.7682,VALID,643.035,VALID,24.8883,VALID,82,VALID,2.45234,
2009-11-01, 08:55:04,VALID,916.958,VALID,0,VALID,70.4099,VALID,639.705,VALID,25.0036,VALID,61,VALID,1.74453,
2009-11-01, 08:56:04,VALID,917.005,VALID,0,VALID,66.804,VALID,637.126,VALID,24.945,VALID,122,VALID,1.86914,
2009-11-01, 08:57:04,VALID,916.978,VALID,0,VALID,71.1265,VALID,640.242,VALID,25.0231,VALID,35,VALID,0.809375,
2009-11-01, 08:58:04,VALID,916.975,VALID,0,VALID,71.2256,VALID,637.341,VALID,25.1988,VALID,112,VALID,1.38555,
2009-11-01, 08:59:04,VALID,916.945,VALID,0,VALID,68.809,VALID,640.672,VALID,25.2769,VALID,168,VALID,1.62148,
2009-11-01, 09:00:04,VALID,916.968,VALID,0,VALID,64.273,VALID,644.754,VALID,25.2574,VALID,75,VALID,3.28594,
2009-11-01, 09:01:04,VALID,916.921,VALID,0,VALID,67.4977,VALID,636.804,VALID,25.1793,VALID,41,VALID,2.95742,
2009-11-01, 09:02:04,VALID,916.979,VALID,0,VALID,68.748,VALID,645.184,VALID,25.1402,VALID,94,VALID,2.27031,
2009-11-01, 09:03:04,VALID,917.001,VALID,0,VALID,64.982,VALID,646.903,VALID,25.1207,VALID,66,VALID,2.68086,
2009-11-01, 09:04:04,VALID,916.911,VALID,0,VALID,63.6403,VALID,647.655,VALID,25.0621,VALID,74,VALID,3.42031,
2009-11-01, 09:05:04,VALID,916.955,VALID,0,VALID,66.3313,VALID,651.631,VALID,25.0407,VALID,55,VALID,2.47344,
2009-11-01, 09:06:04,VALID,916.887,VALID,0,VALID,65.2869,VALID,651.201,VALID,25.0798,VALID,83,VALID,2.83242,
2009-11-01, 09:07:04,VALID,916.92,VALID,0,VALID,64.6313,VALID,652.92,VALID,25.0621,VALID,107,VALID,3.10039,
2009-11-01, 09:08:04,VALID,916.899,VALID,0,VALID,65.0811,VALID,655.606,VALID,24.984,VALID,93,VALID,1.93438,
2009-11-01, 09:09:04,VALID,916.898,VALID,0,VALID,67.8713,VALID,664.309,VALID,25.0017,VALID,56,VALID,1.91016,
2009-11-01, 09:10:04,VALID,916.894,VALID,0,VALID,65.8206,VALID,663.879,VALID,25.0798,VALID,65,VALID,2.62656,
2009-11-01, 09:11:04,VALID,916.831,VALID,0,VALID,65.7977,VALID,668.284,VALID,25.1774,VALID,62,VALID,2.79688,
2009-11-01, 09:12:04,VALID,916.826,VALID,0,VALID,64.6694,VALID,672.259,VALID,25.1969,VALID,52,VALID,2.87344,
2009-11-01, 09:13:04,VALID,916.864,VALID,0,VALID,66.1179,VALID,673.441,VALID,25.2164,VALID,82,VALID,2.0207,
2009-11-01, 09:14:04,VALID,916.826,VALID,0,VALID,66.6744,VALID,676.127,VALID,25.2164,VALID,120,VALID,2.91484,
2009-11-01, 09:15:04,VALID,916.802,VALID,0,VALID,63.8918,VALID,680.64,VALID,25.1383,VALID,94,VALID,4.59102,
2009-11-01, 09:16:04,VALID,916.837,VALID,0,VALID,64.7685,VALID,688.483,VALID,25.2183,VALID,110,VALID,2.07773,
2009-11-01, 09:17:04,VALID,916.844,VALID,0,VALID,68.1686,VALID,689.02,VALID,25.3336,VALID,70,VALID,2.26406,
2009-11-01, 09:18:04,VALID,916.874,VALID,0,VALID,61.803,VALID,693.425,VALID,25.4312,VALID,68,VALID,2.93828,
2009-11-01, 09:19:04,VALID,916.818,VALID,0,VALID,66.3085,VALID,696.434,VALID,25.4898,VALID,22,VALID,1.1082,
2009-11-01, 09:20:04,VALID,916.779,VALID,0,VALID,65.7901,VALID,697.078,VALID,25.4898,VALID,97,VALID,2.46016,
2009-11-01, 09:21:04,VALID,916.797,VALID,0,VALID,64.6161,VALID,703.632,VALID,25.5484,VALID,41,VALID,2.88125,
2009-11-01, 09:22:04,VALID,916.818,VALID,0,VALID,63.6098,VALID,705.781,VALID,25.4898,VALID,102,VALID,2.90195,
2009-11-01, 09:23:04,VALID,916.766,VALID,0,VALID,63.9833,VALID,709.112,VALID,25.3531,VALID,63,VALID,3.03945,
2009-11-01, 09:24:04,VALID,916.624,VALID,0,VALID,63.7927,VALID,710.938,VALID,25.3141,VALID,77,VALID,3.72539,
2009-11-01, 09:25:04,VALID,916.71,VALID,0,VALID,64.456,VALID,713.194,VALID,25.2164,VALID,94,VALID,3.58281,
2009-11-01, 09:26:04,VALID,916.783,VALID,0,VALID,65.3937,VALID,714.699,VALID,25.1969,VALID,77,VALID,3.43594,
2009-11-01, 09:27:04,VALID,916.69,VALID,0,VALID,61.4752,VALID,722.649,VALID,25.236,VALID,127,VALID,3.2043,
2009-11-01, 09:28:04,VALID,916.673,VALID,0,VALID,64.517,VALID,720.715,VALID,25.2555,VALID,57,VALID,2.70234,
2009-11-01, 09:29:04,VALID,916.743,VALID,0,VALID,62.3672,VALID,725.443,VALID,25.236,VALID,99,VALID,4.01875,
2009-11-01, 09:30:04,VALID,916.822,VALID,0,VALID,63.8385,VALID,725.443,VALID,25.1774,VALID,84,VALID,4.03828,
2009-11-01, 09:31:04,VALID,916.703,VALID,0,VALID,64.4026,VALID,728.236,VALID,25.1383,VALID,89,VALID,3.13867,
2009-11-01, 09:32:04,VALID,916.598,VALID,0,VALID,63.4726,VALID,733.178,VALID,25.236,VALID,58,VALID,4.37891,
2009-11-01, 09:33:04,VALID,916.768,VALID,0,VALID,64.9744,VALID,734.683,VALID,25.2555,VALID,95,VALID,2.82188,
2009-11-01, 09:34:04,VALID,916.729,VALID,0,VALID,65.2031,VALID,741.774,VALID,25.275,VALID,89,VALID,2.52461,
2009-11-01, 09:35:04,VALID,916.766,VALID,0,VALID,63.0533,VALID,745.642,VALID,25.4117,VALID,119,VALID,2.48516,
2009-11-01, 09:36:04,VALID,916.748,VALID,0,VALID,66.0645,VALID,744.567,VALID,25.4136,VALID,98,VALID,3.21836,
2009-11-01, 09:37:04,VALID,916.765,VALID,0,VALID,62.8246,VALID,749.724,VALID,25.3726,VALID,150,VALID,2.53828,
2009-11-01, 09:38:04,VALID,916.758,VALID,0,VALID,65.3022,VALID,755.096,VALID,25.4507,VALID,77,VALID,2.75391,
2009-11-01, 09:39:04,VALID,916.761,VALID,0,VALID,61.6353,VALID,758.427,VALID,25.4331,VALID,96,VALID,4.70547,
2009-11-01, 09:40:04,VALID,916.732,VALID,0,VALID,63.4421,VALID,760.146,VALID,25.4741,VALID,112,VALID,2.9,
2009-11-01, 09:41:04,VALID,916.74,VALID,0,VALID,63.3048,VALID,757.568,VALID,25.5503,VALID,63,VALID,2.48125,
2009-11-01, 09:42:04,VALID,916.708,VALID,0,VALID,64.9363,VALID,763.369,VALID,25.687,VALID,346,VALID,0.570703,
2009-11-01, 09:43:04,VALID,916.814,VALID,0,VALID,64.6466,VALID,765.733,VALID,25.8257,VALID,79,VALID,2.00547,
2009-11-01, 09:44:04,VALID,916.721,VALID,0,VALID,63.2286,VALID,768.097,VALID,25.9234,VALID,51,VALID,2.91484,
2009-11-01, 09:45:04,VALID,916.731,VALID,0,VALID,60.7662,VALID,767.56,VALID,25.8628,VALID,135,VALID,2.57266,
2009-11-01, 09:46:04,VALID,916.758,VALID,0,VALID,62.5044,VALID,770.568,VALID,25.8042,VALID,87,VALID,2.12422,
2009-11-01, 09:47:04,VALID,916.652,VALID,0,VALID,64.1206,VALID,779.915,VALID,25.8042,VALID,52,VALID,4.33672,
2009-11-01, 09:48:04,VALID,916.714,VALID,0,VALID,62.4129,VALID,778.519,VALID,25.7437,VALID,61,VALID,3.13867,
2009-11-01, 09:49:04,VALID,916.732,VALID,0,VALID,62.5425,VALID,780.775,VALID,25.6851,VALID,127,VALID,2.67188,
2009-11-01, 09:50:04,VALID,916.655,VALID,0,VALID,62.7483,VALID,784.535,VALID,25.7261,VALID,66,VALID,3.41328,
2009-11-01, 09:51:04,VALID,916.727,VALID,0,VALID,63.099,VALID,778.304,VALID,25.6675,VALID,108,VALID,2.62891,
2009-11-01, 09:52:04,VALID,916.624,VALID,0,VALID,60.4918,VALID,768.419,VALID,25.6851,VALID,99,VALID,4.92305,
2009-11-01, 09:53:04,VALID,916.661,VALID,0,VALID,61.7878,VALID,737.583,VALID,25.6675,VALID,93,VALID,4.23125,
2009-11-01, 09:54:04,VALID,916.672,VALID,0,VALID,60.4994,VALID,673.011,VALID,25.648,VALID,101,VALID,4.42539,
2009-11-01, 09:55:04,VALID,916.655,VALID,0,VALID,61.9479,VALID,574.058,VALID,25.6284,VALID,93,VALID,2.10313,
2009-11-01, 09:56:04,VALID,916.678,VALID,0,VALID,64.6161,VALID,450.608,VALID,25.7456,VALID,65,VALID,1.98594,
2009-11-01, 09:57:04,VALID,916.698,VALID,0,VALID,62.4815,VALID,326.943,VALID,25.7632,VALID,103,VALID,2.80156,
2009-11-01, 09:58:04,VALID,916.697,VALID,0,VALID,61.925,VALID,226.164,VALID,25.8823,VALID,86,VALID,1.97891,
2009-11-01, 09:59:04,VALID,916.681,VALID,0,VALID,61.2237,VALID,158.798,VALID,25.98,VALID,80,VALID,2.9375,
2009-11-01, 10:00:04,VALID,916.621,VALID,0,VALID,62.0394,VALID,126.136,VALID,26.019,VALID,90,VALID,2.12227,
2009-11-01, 10:01:04,VALID,916.77,VALID,0,VALID,63.1829,VALID,113.565,VALID,26.1753,VALID,41,VALID,1.77383,
2009-11-01, 10:02:04,VALID,916.719,VALID,0,VALID,61.4905,VALID,109.912,VALID,26.2339,VALID,104,VALID,1.43242,
2009-11-01, 10:03:04,VALID,916.682,VALID,0,VALID,62.7026,VALID,110.02,VALID,26.312,VALID,57,VALID,2.94805,
2009-11-01, 10:04:04,VALID,916.703,VALID,0,VALID,60.2174,VALID,110.02,VALID,26.3316,VALID,61,VALID,2.43828,
2009-11-01, 10:05:04,VALID,916.7,VALID,0,VALID,62.7636,VALID,109.375,VALID,26.3316,VALID,81,VALID,3.67266,
2009-11-01, 10:06:04,VALID,916.727,VALID,0,VALID,60.6214,VALID,109.16,VALID,26.1948,VALID,164,VALID,2.69766,
2009-11-01, 10:07:04,VALID,916.703,VALID,0,VALID,61.277,VALID,107.763,VALID,26.273,VALID,150,VALID,2.11758,
2009-11-01, 10:08:04,VALID,916.778,VALID,0,VALID,62.8398,VALID,109.375,VALID,26.3706,VALID,73,VALID,2.36914,
2009-11-01, 10:09:04,VALID,916.701,VALID,0,VALID,61.4828,VALID,111.309,VALID,26.5094,VALID,163,VALID,2.43594,
2009-11-01, 10:10:04,VALID,916.732,VALID,0,VALID,61.3075,VALID,111.094,VALID,26.6441,VALID,124,VALID,1.00547,
2009-11-01, 10:11:04,VALID,916.733,VALID,0,VALID,60.5375,VALID,112.276,VALID,26.859,VALID,139,VALID,1.64922,
2009-11-01, 10:12:04,VALID,916.763,VALID,0,VALID,58.4487,VALID,117.433,VALID,26.859,VALID,68,VALID,2.21523,
2009-11-01, 10:13:04,VALID,916.72,VALID,0,VALID,58.3725,VALID,133.012,VALID,26.7593,VALID,166,VALID,1.6625,
2009-11-01, 10:14:04,VALID,916.725,VALID,0,VALID,58.7308,VALID,184.262,VALID,26.7223,VALID,62,VALID,1.40234,
2009-11-01, 10:15:04,VALID,916.739,VALID,0,VALID,57.6559,VALID,292.025,VALID,26.6441,VALID,158,VALID,2.87539,
2009-11-01, 10:16:04,VALID,916.7,VALID,0,VALID,60.6138,VALID,393.664,VALID,26.6226,VALID,110,VALID,0.692578,
2009-11-01, 10:17:04,VALID,916.684,VALID,0,VALID,60.9568,VALID,428.26,VALID,26.7593,VALID,111,VALID,2.49023,
2009-11-01, 10:18:04,VALID,916.633,VALID,0,VALID,59.7447,VALID,465.005,VALID,26.6636,VALID,55,VALID,1.14766,
2009-11-01, 10:19:04,VALID,916.685,VALID,0,VALID,62.5882,VALID,539.569,VALID,26.8004,VALID,76,VALID,1.37891,
2009-11-01, 10:20:04,VALID,916.629,VALID,0,VALID,57.3815,VALID,698.045,VALID,26.7027,VALID,178,VALID,1.64531,
2009-11-01, 10:21:04,VALID,916.557,VALID,0,VALID,59.76,VALID,826.008,VALID,26.5444,VALID,64,VALID,3.59687,
2009-11-01, 10:22:04,VALID,916.619,VALID,0,VALID,63.2896,VALID,862.86,VALID,26.5054,VALID,140,VALID,2.325,
2009-11-01, 10:23:04,VALID,916.52,VALID,0,VALID,60.9873,VALID,868.339,VALID,26.4468,VALID,64,VALID,2.76133,
2009-11-01, 10:24:04,VALID,916.56,VALID,0,VALID,61.2923,VALID,842.554,VALID,26.5444,VALID,88,VALID,1.83398,
2009-11-01, 10:25:04,VALID,916.578,VALID,0,VALID,58.8147,VALID,878.439,VALID,26.6636,VALID,49,VALID,1.12695,
2009-11-01, 10:26:04,VALID,916.544,VALID,0,VALID,64.4331,VALID,871.778,VALID,26.7202,VALID,66,VALID,3.16133,
2009-11-01, 10:27:04,VALID,916.53,VALID,0,VALID,60.3927,VALID,878.331,VALID,26.7788,VALID,134,VALID,1.41836,
2009-11-01, 10:28:04,VALID,916.544,VALID,0,VALID,60.0954,VALID,876.505,VALID,26.7809,VALID,114,VALID,1.95586,
2009-11-01, 10:29:04,VALID,916.499,VALID,0,VALID,58.2429,VALID,885.637,VALID,26.7202,VALID,100,VALID,1.4668,
2009-11-01, 10:30:04,VALID,916.506,VALID,0,VALID,57.107,VALID,858.777,VALID,26.7788,VALID,132,VALID,1.6043,
2009-11-01, 10:31:04,VALID,916.484,VALID,0,VALID,61.3837,VALID,877.687,VALID,26.7984,VALID,115,VALID,1.40742,
2009-11-01, 10:32:04,VALID,916.482,VALID,0,VALID,62.3062,VALID,878.439,VALID,26.857,VALID,52,VALID,2.13164,
2009-11-01, 10:33:04,VALID,916.496,VALID,0,VALID,58.5021,VALID,878.761,VALID,26.9546,VALID,92,VALID,2.50195,
2009-11-01, 10:34:04,VALID,916.497,VALID,0,VALID,60.042,VALID,553.859,VALID,26.9567,VALID,108,VALID,2.45352,
2009-11-01, 10:35:04,VALID,916.505,VALID,0,VALID,60.5147,VALID,374.325,VALID,26.896,VALID,79,VALID,1.79375,